sat.trackr.live / text

‹ back to catalog

QIANFAN-198

NORAD 69416 · 2026-125R

PAYLOAD ACTIVE UNKNOWN

§ Identity

Operator
Country
PRC
Launch date
2026-06-05
Launch site
WSC
Launch vehicle
Mass (kg)
RCS (m²)

External: N2YO · Heavens-Above · Gunter

§ Orbital elements

Epoch: 2026-09-20T03:24:42.642144Z

Period
106.59 min
Inclination
88.9873°
Eccentricity
0.0002072
Mean motion
13.51028170 rev/d
Perigee alt
1,066.9 km
Apogee alt
1,070.0 km
Semi-major
7,446.6 km
B*
1.8655e-5
RAAN
270.3190°
Arg perigee
102.8067°
Mean anomaly
257.3316°
Rev number
1,478

§ Raw data

QIANFAN-1981 69416U 26125R   26263.14216021  .00000024  00000+0  18655-4 0  99922 69416  88.9873 270.3190 0002072 102.8067 257.3316 13.51028170 14783

JSON: /api/v1/satellites/69416 · /tle

For live sub-satellite position, see the globe view (requires WebGL).

§ Visibility from observer

Set your observer location to see the next 7 days of passes ≥ 10°. The values pass through the URL so the page stays shareable.

No JS? Fill the form by hand. The geolocation button needs JavaScript.